timestamp,surface_pressure_avg,surface_temp_avg,battery_voltage,lat,long
2021-02-25 00:09:01+00:00,309.9646,1.37,12.81,47.84626,-54.09684
2021-02-25 00:19:01+00:00,302.3797,1.3,12.65,47.84626,-54.09684
2021-02-25 00:29:01+00:00,291.8447,1.3,12.65,47.84626,-54.09684
2021-02-25 00:39:01+00:00,291.268,1.35,12.65,47.84626,-54.09684
2021-02-25 00:49:01+00:00,284.0314,1.38,12.65,47.84626,-54.09684
2021-02-25 00:59:01+00:00,276.5963,1.4,12.65,47.84626,-54.09684
2021-02-25 01:09:01+00:00,276.3664,1.35,12.65,47.84626,-54.09684
2021-02-25 01:19:01+00:00,273.2697,1.37,12.65,47.84626,-54.09684
2021-02-25 01:29:01+00:00,259.5048,1.39,12.65,47.84626,-54.09684
2021-02-25 01:39:01+00:00,251.8348,1.4,12.65,47.84626,-54.09684
2021-02-25 01:49:01+00:00,253.1447,1.4,12.65,47.84626,-54.09684
2021-02-25 01:59:01+00:00,248.5914,1.4,12.65,47.84626,-54.09684
2021-02-25 02:09:01+00:00,239.2098,1.4,12.65,47.84626,-54.09684
2021-02-25 02:19:01+00:00,232.8864,1.4,12.65,47.84626,-54.09684
2021-02-25 02:29:01+00:00,233.9832,1.4,12.65,47.84626,-54.09684
2021-02-25 02:39:01+00:00,235.6548,1.4,12.65,47.84626,-54.09684
2021-02-25 02:49:01+00:00,233.0648,1.4,12.65,47.84626,-54.09684
2021-02-25 02:59:01+00:00,226.5381,1.4,12.65,47.84626,-54.09684
2021-02-25 03:09:01+00:00,223.6031,1.4,12.65,47.84626,-54.09684
2021-02-25 03:19:01+00:00,224.5281,1.4,12.57,47.84626,-54.09684
2021-02-25 03:29:01+00:00,222.6564,1.4,12.57,47.84626,-54.09684
2021-02-25 03:39:01+00:00,219.8181,1.4,12.57,47.84626,-54.09684
2021-02-25 03:49:01+00:00,219.5697,1.4,12.57,47.84626,-54.09684
2021-02-25 03:59:01+00:00,217.0914,1.4,12.57,47.84626,-54.09684
2021-02-25 04:09:01+00:00,213.8214,1.4,12.57,47.84626,-54.09684
2021-02-25 04:19:01+00:00,215.5214,1.4,12.57,47.84626,-54.09684
2021-02-25 04:29:01+00:00,218.9165,1.4,12.57,47.84626,-54.09684
2021-02-25 04:39:01+00:00,215.5114,1.4,12.57,47.84626,-54.09684
2021-02-25 04:49:01+00:00,211.7948,1.4,12.57,47.84626,-54.09684
2021-02-25 04:59:01+00:00,216.9015,1.4,12.57,47.84626,-54.09684
2021-02-25 05:09:01+00:00,224.6498,1.4,12.57,47.84626,-54.09684
2021-02-25 05:19:01+00:00,225.1297,1.4,12.57,47.84626,-54.09684
2021-02-25 05:29:01+00:00,229.3898,1.4,12.57,47.84626,-54.09684
2021-02-25 05:39:01+00:00,239.2131,1.4,12.57,47.84626,-54.09684
2021-02-25 05:49:01+00:00,245.3564,1.42,12.57,47.84626,-54.09684
2021-02-25 05:59:01+00:00,245.3365,1.44,12.57,47.84626,-54.09684
2021-02-25 06:09:01+00:00,248.5397,1.44,12.57,47.84626,-54.09684
2021-02-25 06:19:01+00:00,254.5148,1.43,12.57,47.84626,-54.09684
2021-02-25 06:29:01+00:00,258.9814,1.43,12.57,47.84626,-54.09684
2021-02-25 06:39:01+00:00,261.338,1.44,12.57,47.84626,-54.09684
2021-02-25 06:49:01+00:00,265.9048,1.43,12.57,47.84626,-54.09684
2021-02-25 06:59:01+00:00,272.0064,1.43,12.57,47.84626,-54.09684
2021-02-25 07:09:01+00:00,278.5031,1.4,12.57,47.84626,-54.09684
2021-02-25 07:19:01+00:00,286.2247,1.41,12.49,47.84626,-54.09684
2021-02-25 07:29:01+00:00,297.7097,1.4,12.49,47.84626,-54.09684
2021-02-25 07:39:01+00:00,308.243,1.4,12.49,47.84626,-54.09684
2021-02-25 07:49:01+00:00,315.488,1.4,12.49,47.84626,-54.09684
2021-02-25 07:59:01+00:00,318.2231,1.4,12.49,47.84626,-54.09684
2021-02-25 08:09:01+00:00,323.3747,1.4,12.49,47.84626,-54.09684
2021-02-25 08:19:01+00:00,328.6947,1.4,12.49,47.84626,-54.09684
2021-02-25 08:29:01+00:00,331.283,1.46,12.49,47.84626,-54.09684
2021-02-25 08:39:01+00:00,331.3929,1.5,12.49,47.84626,-54.09684
2021-02-25 08:49:01+00:00,334.7081,1.5,12.49,47.84626,-54.09684
2021-02-25 08:59:01+00:00,337.9464,1.5,12.49,47.84626,-54.09684
2021-02-25 09:09:01+00:00,337.8196,1.5,12.49,47.84626,-54.09684
2021-02-25 09:19:01+00:00,346.923,1.5,12.49,47.84626,-54.09684
2021-02-25 09:29:01+00:00,358.8229,1.5,12.49,47.84626,-54.09684
2021-02-25 09:39:01+00:00,364.3879,1.5,12.49,47.84626,-54.09684
2021-02-25 09:49:01+00:00,363.4813,1.49,12.49,47.84626,-54.09684
2021-02-25 09:59:01+00:00,364.8463,1.48,12.49,47.84626,-54.09684
2021-02-25 10:09:01+00:00,365.0596,1.48,12.49,47.84626,-54.09684
2021-02-25 10:19:01+00:00,364.1797,1.47,12.49,47.84626,-54.09684
2021-02-25 10:29:01+00:00,361.3979,1.45,12.49,47.84626,-54.09684
2021-02-25 10:39:01+00:00,361.8529,1.43,12.49,47.84626,-54.09684
2021-02-25 10:49:01+00:00,366.4263,1.44,12.49,47.84626,-54.09684
2021-02-25 10:59:01+00:00,365.7213,1.45,12.49,47.84626,-54.09684
2021-02-25 11:09:01+00:00,363.5663,1.4,12.49,47.84626,-54.09684
2021-02-25 11:19:01+00:00,365.6046,1.43,12.49,47.84626,-54.09684
2021-02-25 11:29:01+00:00,367.9697,1.5,12.49,47.84626,-54.09684
2021-02-25 11:39:01+00:00,368.3063,1.56,12.49,47.84626,-54.09684
2021-02-25 11:49:01+00:00,363.1997,1.6,12.49,47.84626,-54.09684
2021-02-25 11:59:01+00:00,355.9163,1.6,12.49,47.84626,-54.09684
2021-02-25 12:09:01+00:00,352.5663,1.6,12.49,47.84626,-54.09684
2021-02-25 12:19:01+00:00,346.0546,1.6,12.89,47.84626,-54.09684
2021-02-25 12:29:01+00:00,334.2963,1.6,12.89,47.84626,-54.09684
2021-02-25 12:39:01+00:00,331.8663,1.6,12.89,47.84626,-54.09684
2021-02-25 12:49:01+00:00,333.0013,1.6,12.89,47.84626,-54.09684
2021-02-25 12:59:01+00:00,326.888,1.6,12.89,47.84626,-54.09684
2021-02-25 13:09:01+00:00,322.2679,1.6,12.89,47.84626,-54.09684
2021-02-25 13:19:01+00:00,327.6879,1.6,13.29,47.84626,-54.09684
2021-02-25 13:29:01+00:00,325.643,1.6,13.29,47.84626,-54.09684
2021-02-25 13:39:01+00:00,310.6363,1.61,13.29,47.84626,-54.09684
2021-02-25 13:49:01+00:00,301.3964,1.65,13.29,47.84626,-54.09684
2021-02-25 13:59:01+00:00,299.218,1.67,13.29,47.84626,-54.09684
2021-02-25 14:09:01+00:00,290.4031,1.69,13.29,47.84626,-54.09684
2021-02-25 14:19:01+00:00,278.7264,1.69,13.76,47.84626,-54.09684
2021-02-25 14:29:01+00:00,272.5964,1.7,13.76,47.84626,-54.09684
2021-02-25 14:39:01+00:00,268.9064,1.7,13.76,47.84626,-54.09684
2021-02-25 14:49:01+00:00,259.3564,1.7,13.76,47.84626,-54.09684
2021-02-25 14:59:01+00:00,250.7164,1.7,13.76,47.84626,-54.09684
2021-02-25 15:09:01+00:00,247.2448,1.7,13.76,47.84626,-54.09684
2021-02-25 15:19:01+00:00,245.6731,1.73,13.76,47.84626,-54.09684
2021-02-25 15:29:01+00:00,234.2631,1.76,13.76,47.84626,-54.09684
2021-02-25 15:39:01+00:00,227.4698,1.78,13.76,47.84626,-54.09684
2021-02-25 15:49:01+00:00,226.3131,1.79,13.76,47.84626,-54.09684
2021-02-25 15:59:01+00:00,226.6381,1.8,13.76,47.84626,-54.09684
2021-02-25 16:09:01+00:00,218.1064,1.8,13.76,47.84626,-54.09684
2021-02-25 16:19:01+00:00,213.7631,1.8,13.84,47.84626,-54.09684
2021-02-25 16:29:01+00:00,218.7298,1.8,13.84,47.84626,-54.09684
2021-02-25 16:39:01+00:00,221.5764,1.8,13.84,47.84626,-54.09684
2021-02-25 16:49:01+00:00,212.7747,1.8,13.84,47.84626,-54.09684
2021-02-25 16:59:01+00:00,212.1981,1.8,13.84,47.84626,-54.09684
2021-02-25 17:09:01+00:00,220.1214,1.8,13.84,47.84626,-54.09684
2021-02-25 17:19:01+00:00,214.5148,1.8,13.84,47.84626,-54.09684
2021-02-25 17:29:01+00:00,215.9148,1.8,13.84,47.84626,-54.09684
2021-02-25 17:39:01+00:00,227.3798,1.8,13.84,47.84626,-54.09684
2021-02-25 17:49:01+00:00,229.3781,1.8,13.84,47.84626,-54.09684
2021-02-25 17:59:01+00:00,226.2047,1.8,13.84,47.84626,-54.09684
2021-02-25 18:09:01+00:00,228.7997,1.8,13.84,47.84626,-54.09684
2021-02-25 18:19:01+00:00,236.9064,1.8,13.44,47.84626,-54.09684
2021-02-25 18:29:01+00:00,237.418,1.8,13.44,47.84626,-54.09684
2021-02-25 18:39:01+00:00,240.5481,1.8,13.44,47.84626,-54.09684
2021-02-25 18:49:01+00:00,247.3664,1.8,13.44,47.84626,-54.09684
2021-02-25 18:59:01+00:00,253.2914,1.8,13.44,47.84626,-54.09684
2021-02-25 19:09:01+00:00,257.9197,1.8,13.44,47.84626,-54.09684
2021-02-25 19:19:01+00:00,266.6815,1.8,13.05,47.84626,-54.09684
2021-02-25 19:29:01+00:00,276.2247,1.8,13.05,47.84626,-54.09684
2021-02-25 19:39:01+00:00,281.5614,1.74,13.05,47.84626,-54.09684
2021-02-25 19:49:01+00:00,281.8014,1.7,13.05,47.84626,-54.09684
2021-02-25 19:59:01+00:00,288.1447,1.7,13.05,47.84626,-54.09684
2021-02-25 20:09:01+00:00,299.5746,1.7,13.05,47.84626,-54.09684
2021-02-25 20:19:01+00:00,301.293,1.6,12.73,47.84626,-54.09684
2021-02-25 20:29:01+00:00,302.538,1.5,12.73,47.84626,-54.09684
2021-02-25 20:39:01+00:00,314.6763,1.5,12.73,47.84626,-54.09684
2021-02-25 20:49:01+00:00,327.0096,1.49,12.73,47.84626,-54.09684
2021-02-25 20:59:01+00:00,334.1814,1.44,12.73,47.84626,-54.09684
2021-02-25 21:09:01+00:00,342.3397,1.4,12.73,47.84626,-54.09684
2021-02-25 21:19:01+00:00,347.4547,1.4,12.57,47.84626,-54.09684
2021-02-25 21:29:01+00:00,349.3796,1.3,12.57,47.84626,-54.09684
2021-02-25 21:39:01+00:00,348.5396,1.3,12.57,47.84626,-54.09684
2021-02-25 21:49:01+00:00,353.0496,1.29,12.57,47.84626,-54.09684
2021-02-25 21:59:01+00:00,353.9579,1.27,12.57,47.84626,-54.09684
2021-02-25 22:09:01+00:00,349.8296,1.24,12.57,47.84626,-54.09684
2021-02-25 22:19:01+00:00,350.9796,1.24,12.65,47.84626,-54.09684
2021-02-25 22:29:01+00:00,356.4463,1.26,12.65,47.84626,-54.09684
2021-02-25 22:39:01+00:00,351.6579,1.25,12.65,47.84626,-54.09684
2021-02-25 22:49:01+00:00,348.1846,1.24,12.65,47.84626,-54.09684
2021-02-25 22:59:01+00:00,357.3346,1.27,12.65,47.84626,-54.09684
2021-02-25 23:09:01+00:00,358.088,1.29,12.65,47.84626,-54.09684
2021-02-25 23:19:01+00:00,348.1246,1.3,12.57,47.84626,-54.09684
2021-02-25 23:29:01+00:00,346.0196,1.3,12.57,47.84626,-54.09684
2021-02-25 23:39:01+00:00,345.7963,1.4,12.57,47.84626,-54.09684
2021-02-25 23:49:01+00:00,333.2447,1.49,12.57,47.84626,-54.09684
2021-02-25 23:59:01+00:00,325.8446,1.45,12.57,47.84626,-54.09684
